GEFSMA_500_meanwind_084.txt.gz
Wind_Speed
34 34 34 33 32 31 30 30 28 27 26 27 26 25 24 25 24 23 22 22 24 24 24 23 24 24 24 23 23 22 21 21 19 19 19 18 17 17 17 16 15 14 13
36 35 34 35 34 33 33 31 31 30 28 28 28 27 26 25 24 24 23 23 23 24 24 24 23 23 24 24 24 24 24 24 22 22 22 21 19 20 19 18 17 16 15
36 36 36 35 34 34 34 33 32 31 30 29 28 28 27 27 25 24 24 24 24 24 24 23 23 22 22 23 24 24 24 25 24 23 24 24 22 22 22 21 20 19 18
37 37 37 36 36 34 34 34 34 31 31 30 29 28 27 27 26 25 25 24 24 24 23 21 22 22 22 22 23 23 24 25 25 24 24 26 25 25 25 24 23 22 21
38 38 37 36 35 34 33 33 34 32 31 31 31 31 29 27 26 26 25 24 24 23 23 22 21 21 22 21 22 22 22 23 24 23 24 25 25 26 26 27 26 25 24
39 39 38 37 35 33 32 33 33 32 32 33 33 32 30 28 27 26 25 24 23 22 22 22 21 21 21 21 20 20 21 21 22 22 22 24 25 25 26 27 28 28 26
40 39 38 37 35 34 33 32 32 33 33 32 32 31 30 29 28 26 25 24 23 22 22 22 22 21 21 19 19 19 19 21 21 21 21 21 23 24 26 26 28 29 30
40 39 38 37 34 33 32 31 30 32 32 32 32 31 30 29 29 28 27 26 25 24 24 23 22 21 20 19 19 18 18 19 19 19 19 20 21 21 23 26 27 29 30
40 39 38 36 35 34 33 32 30 30 31 32 32 31 29 29 30 30 28 28 27 26 26 25 23 22 21 19 18 17 17 17 17 17 18 19 19 20 21 23 25 27 28
41 40 39 38 37 36 35 34 33 32 31 32 33 33 32 31 31 30 30 30 29 28 28 27 25 24 23 20 18 17 17 16 16 16 16 17 17 18 19 21 22 24 26
42 41 41 41 40 39 38 36 34 34 33 34 35 35 34 33 33 32 31 32 31 31 30 29 27 26 24 22 20 18 17 16 15 16 16 16 15 16 17 19 20 22 24
43 43 42 42 41 41 41 40 39 38 37 37 37 37 36 35 35 34 34 33 33 32 32 31 29 28 26 25 22 20 19 18 17 16 15 16 15 15 16 18 18 20 22
44 44 44 43 43 43 43 43 42 42 42 41 40 40 39 39 39 37 37 36 34 33 33 32 32 30 29 26 24 23 22 20 19 17 17 17 17 17 17 18 18 20 21
45 45 46 46 46 46 46 45 44 45 45 45 44 43 42 42 42 41 40 38 38 36 35 34 34 33 31 29 27 25 24 23 21 20 19 18 18 18 18 18 19 19 20
47 48 48 48 48 48 49 48 48 47 47 46 45 45 45 44 43 43 42 41 40 39 38 37 36 35 34 32 30 28 27 25 24 22 21 20 19 18 17 17 17 18 19
51 52 51 51 50 51 51 51 51 51 50 49 48 47 47 47 47 45 46 44 42 41 40 39 38 37 36 34 33 31 29 28 26 25 23 22 21 19 18 17 17 18 19
52 53 53 53 52 52 52 53 54 54 53 53 52 51 51 51 50 48 48 48 47 45 43 42 40 39 38 37 36 35 33 31 28 27 25 24 23 21 20 19 19 18 19
52 53 53 53 53 53 52 53 54 56 56 56 55 55 54 54 53 52 51 50 50 49 47 45 43 42 41 39 39 38 35 33 31 29 27 25 24 23 22 20 19 19 19
51 52 52 52 52 52 52 53 54 56 57 57 57 58 57 57 57 56 55 54 53 52 51 49 46 45 43 42 41 40 38 36 34 32 30 28 26 24 23 22 21 20 20
51 51 50 50 51 51 52 52 53 54 56 57 58 58 59 59 59 59 59 58 57 55 54 52 50 48 46 44 43 42 39 38 36 34 33 31 28 27 25 24 23 22 21
49 48 48 48 49 50 51 51 52 53 55 56 57 58 59 60 60 61 61 60 61 59 57 55 53 50 49 47 44 44 42 39 38 36 35 33 31 29 27 26 24 23 22
44 43 42 43 44 45 46 48 49 50 52 53 55 56 58 58 60 61 61 61 62 61 58 57 56 54 51 50 48 46 44 42 40 38 36 35 33 31 29 27 26 24 22
39 38 38 38 39 40 42 43 45 47 48 49 50 52 55 57 58 59 61 61 61 61 60 58 57 56 54 52 51 48 45 44 43 41 39 37 34 32 30 28 27 26 24
35 34 33 33 34 36 37 39 40 42 43 44 45 48 50 53 55 56 58 59 60 61 61 60 58 56 55 54 52 50 49 47 44 41 39 38 36 34 32 30 28 26 25
32 30 29 28 28 30 32 34 36 37 38 40 41 43 46 47 49 52 54 56 56 58 60 60 58 57 55 54 53 50 49 48 45 42 39 37 36 35 34 31 29 27 26
29 27 26 25 24 25 27 28 30 33 34 35 37 40 41 43 45 47 49 51 52 54 56 57 57 55 53 53 53 52 49 48 47 44 41 39 36 35 34 32 30 29 27

GEFSMA_500_meanwind_090.txt.gz
Wind_Speed
28 27 27 26 26 26 25 24 23 23 23 24 24 24 25 25 25 24 22 23 22 22 22 22 22 22 22 21 20 19 18 17 16 15 15 15 14 14 13 13 13 12 11
29 29 29 28 28 27 26 26 26 26 25 24 25 26 26 26 26 26 24 24 24 23 23 23 24 24 23 23 22 21 20 20 19 18 17 17 17 16 15 15 15 15 14
31 31 30 29 28 27 27 27 27 26 26 25 25 26 27 27 27 27 26 25 24 24 24 24 25 25 25 24 23 23 23 22 22 22 21 19 19 19 19 18 17 17 16
32 32 32 31 30 29 29 28 28 27 26 26 27 27 27 28 28 27 27 27 26 25 25 25 25 25 25 25 25 24 24 24 24 23 23 22 21 20 20 20 19 19 19
34 34 34 32 31 31 30 29 29 28 27 27 27 27 28 28 29 29 28 27 27 27 26 26 26 26 25 26 25 25 24 24 25 25 24 24 23 23 22 22 22 21 21
35 35 35 34 32 31 31 30 29 29 28 29 28 27 27 29 29 30 30 28 26 27 27 26 27 26 25 26 25 25 24 24 24 25 25 25 24 24 23 24 24 23 23
36 36 35 34 34 33 32 31 31 30 30 30 30 28 28 29 30 30 30 29 27 27 27 27 28 27 26 25 25 24 24 24 25 25 26 25 25 24 24 24 25 25 25
39 38 37 37 36 35 35 34 32 31 31 31 30 28 27 28 29 29 30 29 28 28 28 28 29 28 26 26 25 24 23 23 24 24 24 24 24 24 24 24 24 24 25
41 40 40 40 39 38 37 35 34 33 32 32 31 30 29 29 28 28 29 30 30 29 29 30 29 28 27 26 25 25 24 23 23 23 23 23 23 23 22 23 24 23 25
41 41 41 41 41 40 38 37 36 35 34 33 33 33 32 31 30 30 29 30 30 30 29 30 29 29 28 27 26 25 25 23 23 23 23 22 22 22 21 21 22 22 23
41 41 41 41 40 40 39 38 37 37 36 35 35 34 34 33 32 32 31 30 30 30 30 30 29 30 29 29 28 27 26 24 24 23 22 21 21 20 20 20 20 21 21
40 40 40 40 39 39 39 39 38 38 38 37 37 36 36 35 34 33 32 32 31 31 32 32 32 31 31 31 30 29 27 26 25 24 22 21 20 20 20 19 19 19 20
39 40 40 40 40 40 40 40 39 39 39 39 38 38 38 37 36 35 35 35 34 33 34 33 34 34 33 32 31 30 29 27 26 25 23 22 21 20 19 19 18 18 18
39 41 42 42 42 42 41 41 41 41 41 41 41 40 39 39 38 38 38 38 37 36 35 35 35 35 35 34 33 33 31 30 29 27 25 24 22 21 20 18 17 17 17
40 42 43 43 43 44 44 44 44 44 43 43 43 43 42 41 39 40 40 40 40 39 37 36 36 37 37 36 34 35 34 33 31 29 27 26 24 22 20 19 18 17 17
41 42 43 43 44 45 45 45 46 46 45 45 45 44 44 44 43 42 41 42 42 41 40 38 37 38 38 37 37 37 37 36 34 32 29 28 26 24 22 20 19 18 17
43 44 44 45 45 46 47 47 47 47 47 47 47 47 46 46 46 46 45 44 44 44 42 41 40 39 40 39 39 37 37 38 37 35 32 30 28 26 24 22 20 19 18
44 45 45 46 46 47 48 48 49 49 49 49 49 49 49 49 48 48 48 47 47 47 46 44 44 42 41 41 40 40 40 39 38 37 35 33 30 28 26 24 22 20 19
44 45 45 46 46 47 47 48 49 49 50 50 50 51 51 51 51 50 50 49 49 49 49 48 46 45 44 42 42 43 43 41 40 38 37 35 32 30 28 26 24 23 21
44 44 44 44 45 45 46 47 48 49 49 50 50 51 52 53 53 53 53 52 52 52 51 51 49 47 46 45 44 44 44 43 41 39 38 36 34 32 30 28 26 25 23
42 42 41 41 42 43 44 45 46 46 47 49 49 51 52 52 53 54 55 54 53 54 53 54 52 50 49 47 45 44 45 44 43 40 39 38 36 34 32 30 28 27 25
40 39 39 38 39 39 40 41 42 43 45 46 47 49 51 52 52 53 54 55 55 55 55 55 54 53 51 50 48 47 46 46 44 42 41 39 38 36 34 32 30 28 27
37 36 36 35 35 35 36 37 38 39 41 43 45 47 49 50 51 52 53 55 56 56 56 56 55 54 53 52 51 49 47 46 45 45 43 41 40 38 37 35 33 31 28
34 33 33 32 32 31 32 33 35 37 38 40 43 45 47 48 50 50 51 52 54 55 56 57 57 56 54 53 53 52 51 49 47 46 45 42 41 39 38 37 35 33 31
32 32 31 30 29 29 28 28 30 32 34 37 39 41 43 45 47 48 49 51 52 54 55 56 58 57 56 55 54 54 52 50 48 47 45 42 41 41 39 38 36 35 32
31 30 29 28 27 26 24 24 25 27 29 31 34 37 40 43 45 46 47 48 49 51 53 54 56 57 57 57 56 54 53 51 50 48 46 44 42 41 40 39 37 35 34

GEFSMA_500_meanwind_096.txt.gz
Wind_Speed
28 27 27 27 28 28 28 28 27 27 27 27 25 24 22 22 22 21 22 23 23 22 22 22 22 23 23 22 22 21 20 18 17 17 16 15 14 14 13 12 12 11 10
29 29 29 29 29 29 29 27 27 27 27 26 25 24 24 24 24 23 23 23 25 25 24 25 24 24 25 25 24 23 22 21 20 19 18 17 16 16 15 14 13 12 12
28 29 28 29 30 30 29 28 27 28 26 25 26 25 25 25 25 25 25 25 25 26 26 26 26 25 26 26 26 26 25 23 22 21 20 19 19 18 17 16 15 14 13
29 29 29 29 31 30 29 28 28 27 26 26 26 26 27 26 25 26 27 27 28 27 28 28 28 28 27 28 28 28 27 26 25 23 22 21 20 19 19 18 17 16 15
31 31 31 31 30 31 29 29 28 27 27 27 27 27 27 27 27 27 27 28 29 29 29 29 29 29 29 29 28 29 29 28 27 25 25 24 23 22 21 20 19 18 18
33 33 32 32 32 31 31 31 29 29 29 29 29 28 28 28 28 28 27 28 29 30 30 30 30 30 30 30 30 30 30 30 28 27 26 25 25 24 23 22 21 20 19
34 34 34 34 34 33 33 33 32 31 31 31 31 31 30 30 30 30 29 29 29 31 31 32 32 32 31 31 31 31 31 31 30 28 28 27 26 25 25 24 23 22 21
35 36 36 36 36 36 35 35 34 34 34 34 33 33 32 31 31 31 31 30 30 32 32 32 32 33 32 32 32 32 31 31 30 29 28 27 27 27 26 26 25 24 23
37 37 36 37 37 37 37 37 37 37 37 37 36 35 33 32 32 32 31 31 31 31 32 33 33 33 32 33 33 33 33 31 31 29 29 28 27 27 27 27 26 25 24
36 36 36 37 37 37 37 38 38 38 38 38 38 37 36 35 33 33 33 32 32 32 33 33 33 33 33 33 34 34 34 33 31 30 30 28 28 28 27 27 26 25 25
35 34 35 35 36 37 37 38 38 38 38 38 39 39 39 38 36 36 35 34 34 33 34 34 35 35 34 34 35 36 35 34 32 31 29 29 28 27 27 27 26 25 25
35 35 35 35 35 36 37 37 38 38 38 38 39 39 39 39 39 38 37 36 35 35 36 35 35 36 35 35 35 36 36 35 33 31 30 29 28 27 26 26 25 24 24
36 37 36 36 36 36 37 37 38 39 39 39 40 40 40 40 39 39 39 38 38 37 38 37 35 36 37 37 38 37 37 36 33 32 30 29 28 27 26 25 25 24 23
36 37 37 38 38 38 38 39 39 39 40 41 41 42 42 42 41 41 40 40 39 39 39 38 37 37 37 37 37 38 37 36 34 33 31 30 29 28 26 26 25 24 23
37 37 38 38 39 39 40 40 40 41 41 41 42 43 44 44 43 43 42 41 41 40 40 40 40 40 39 39 39 40 39 37 35 34 33 31 30 29 28 26 25 24 23
38 38 38 38 39 40 41 41 41 42 42 42 42 43 44 45 45 44 44 43 42 43 42 41 41 41 41 41 42 41 40 39 38 36 35 34 32 31 29 27 26 25 24
38 39 39 40 40 41 42 42 42 43 43 43 44 44 45 46 46 45 45 45 44 43 43 43 44 43 43 43 43 43 42 41 40 38 37 36 34 32 31 29 28 26 24
38 38 39 40 41 42 43 44 44 44 44 44 45 45 46 47 46 46 46 46 45 45 45 45 45 45 46 45 45 45 43 43 42 40 40 38 36 35 33 31 30 28 26
37 38 39 40 40 41 41 42 43 44 44 44 45 45 46 47 47 47 47 47 47 47 47 46 45 46 46 47 47 47 45 45 44 43 42 41 39 37 35 34 32 30 28
37 38 38 38 38 38 39 40 41 42 43 44 44 45 46 47 48 48 48 47 48 49 49 48 47 47 48 47 48 47 46 46 46 45 44 43 41 40 37 36 35 33 31
37 37 37 37 37 37 38 39 40 41 42 43 43 44 45 47 48 49 49 49 49 49 49 50 49 49 50 49 49 48 48 48 47 47 46 45 43 42 40 39 37 34 33
36 36 36 35 35 36 36 37 38 39 40 41 42 43 44 45 47 48 49 50 50 50 50 50 52 51 51 50 50 49 49 49 48 48 47 46 45 44 43 41 38 36 34
36 35 34 34 33 34 34 34 35 36 37 39 40 42 44 45 46 48 48 49 51 51 51 51 52 53 54 53 52 50 51 51 50 50 49 48 47 46 45 43 41 39 36
35 34 33 33 33 32 33 33 33 33 34 36 37 39 41 44 46 47 48 49 51 52 52 52 52 53 55 54 55 52 50 51 52 52 51 50 49 48 47 45 43 41 38
35 33 32 32 31 31 31 31 31 30 31 32 34 36 38 41 44 46 47 48 50 52 53 53 54 54 56 55 55 56 53 52 52 52 52 51 50 49 48 47 45 42 40
34 33 32 31 31 30 30 29 29 28 28 29 30 32 34 37 41 44 45 46 48 50 52 53 53 54 55 56 56 56 56 54 53 53 52 52 51 50 49 48 46 43 41

GEFSMA_500_meanwind_102.txt.gz
Wind_Speed
31 32 30 28 29 29 28 27 26 25 25 25 23 24 24 23 23 23 22 23 24 25 26 27 26 26 25 25 24 23 22 21 20 18 17 17 16 15 14 13 13 12 11
31 33 31 31 30 30 29 29 27 27 26 25 25 25 24 24 23 24 24 25 26 26 26 28 28 28 27 27 27 26 25 24 23 21 20 19 18 17 16 15 14 13 12
27 27 28 30 29 29 30 30 29 28 27 27 27 26 26 25 25 24 25 25 26 28 28 29 30 30 30 29 29 29 28 28 26 25 23 22 20 19 18 17 16 15 14
26 26 25 27 29 28 28 29 30 29 28 27 27 27 27 26 26 26 26 27 27 28 29 30 31 31 32 31 31 31 31 30 29 28 26 24 23 22 20 19 18 17 16
25 25 25 26 27 29 29 29 29 29 29 28 27 27 27 27 27 26 27 28 29 29 29 31 31 32 33 33 33 32 32 31 32 31 29 27 25 24 22 22 20 19 18
25 26 27 28 29 30 30 31 31 31 31 30 30 29 29 28 28 27 27 28 28 28 30 32 33 33 34 35 34 34 34 34 33 33 32 30 28 26 25 24 22 21 20
27 27 29 30 30 31 32 32 33 34 33 32 31 31 31 30 30 29 29 29 29 30 30 32 34 35 34 36 36 35 35 36 35 34 35 33 31 29 28 26 25 23 22
28 28 28 30 31 32 33 34 34 34 34 34 33 33 32 31 31 32 32 31 32 32 32 32 34 35 35 36 37 37 36 36 36 35 35 35 34 32 30 29 27 26 24
29 29 30 31 32 33 33 34 34 35 35 35 34 34 34 34 34 33 34 34 34 34 34 34 34 35 35 36 37 38 38 38 38 36 36 36 35 33 32 31 29 28 27
29 30 30 31 31 32 32 33 34 34 35 35 35 35 36 36 36 35 36 37 36 36 36 36 36 35 36 36 37 37 38 38 38 37 36 37 37 35 33 32 31 30 29
30 31 31 31 31 32 33 33 34 34 35 35 36 36 37 37 37 37 36 37 38 38 38 37 37 37 37 37 37 38 38 39 39 38 38 38 38 37 35 34 32 31 30
31 32 32 32 32 32 33 33 34 35 36 36 37 37 38 38 39 39 39 38 39 39 39 39 38 38 38 39 38 38 39 40 40 39 39 38 38 37 36 34 33 31 31
33 33 33 33 33 33 33 33 34 35 36 37 38 39 39 40 40 40 40 40 40 40 41 41 40 40 40 40 39 39 40 40 40 39 40 39 39 37 36 35 34 32 31
33 34 34 34 34 34 34 34 35 35 36 37 38 39 40 40 41 42 41 41 41 42 42 42 42 42 41 41 40 40 40 40 40 40 40 40 39 38 37 36 34 33 32
33 34 34 35 35 35 35 35 36 36 36 37 39 40 41 42 43 43 43 43 43 42 43 43 43 43 43 42 41 42 41 41 41 41 40 41 40 39 38 37 35 34 32
33 33 34 34 35 35 36 36 37 37 38 38 39 40 41 42 43 44 45 45 45 44 44 44 45 45 45 43 43 42 43 43 43 43 42 41 41 40 39 38 36 35 33
33 33 33 33 34 35 36 36 37 38 39 39 40 41 42 43 44 44 45 45 45 46 45 46 45 45 45 45 44 44 45 44 44 44 44 43 42 41 40 39 37 35 34
32 32 32 33 34 34 35 36 37 38 39 40 41 41 42 43 45 45 45 45 46 46 46 46 47 46 46 47 46 46 46 45 44 44 44 44 43 43 41 40 38 36 35
32 32 32 32 33 33 34 35 37 38 39 40 41 42 43 44 45 46 47 47 46 46 46 47 47 47 47 48 47 47 47 47 44 44 45 45 44 44 42 41 40 38 36
32 32 32 32 32 33 34 35 36 36 37 38 40 41 43 44 45 46 48 48 48 47 47 46 47 47 48 48 48 47 48 48 46 45 45 46 46 45 44 42 41 39 37
32 32 32 32 32 33 33 34 34 35 35 36 38 39 41 43 44 46 47 48 49 48 47 47 47 47 48 49 48 48 48 49 48 47 46 48 48 47 45 44 42 41 39
33 33 33 33 33 32 32 32 32 33 33 35 36 37 39 40 42 45 47 48 50 49 48 48 48 48 48 49 49 49 49 49 49 49 48 48 49 48 47 45 44 42 41
34 33 33 33 33 32 31 31 31 31 32 33 35 36 38 39 41 43 46 48 50 50 50 49 48 48 49 49 48 48 49 48 48 49 50 50 50 49 48 47 46 44 43
35 34 33 32 32 31 30 30 30 30 30 31 32 33 35 37 39 41 43 46 48 49 50 51 50 49 50 50 49 49 49 48 48 49 49 51 51 51 49 48 47 46 44
35 34 33 32 32 31 30 29 29 29 29 30 30 31 33 35 37 38 40 42 44 47 50 50 51 50 50 50 50 50 50 49 49 49 49 50 51 52 51 50 49 48 46
35 34 33 32 32 30 30 29 28 27 27 28 28 29 31 33 34 36 38 40 42 45 47 49 50 50 51 51 51 51 51 50 51 50 49 50 52 53 52 52 50 48 47

GEFSMA_500_meanwind_108.txt.gz
Wind_Speed
25 24 24 25 27 26 26 27 27 27 25 24 23 23 23 24 24 22 20 21 21 22 22 22 22 22 22 21 19 19 18 17 16 15 15 14 13 12 11 11 10 10 9
26 25 24 24 25 25 25 27 27 26 27 26 25 24 23 23 23 24 22 22 23 24 24 24 25 24 24 24 23 21 21 20 19 18 17 16 15 14 14 13 12 11 10
24 24 24 23 23 24 24 24 25 25 26 26 26 25 24 24 24 24 24 24 25 25 25 25 26 26 26 27 26 24 23 22 21 20 20 19 18 16 16 15 14 13 12
23 23 23 22 23 23 23 23 25 25 25 26 26 26 25 24 24 25 25 25 26 26 26 27 27 28 28 28 28 28 26 25 24 23 22 22 21 19 18 17 16 15 14
25 25 24 23 23 23 22 22 24 26 27 26 26 26 26 26 25 24 24 26 26 27 27 27 28 29 31 30 29 29 29 28 27 26 24 24 23 22 21 19 18 17 16
25 26 25 25 24 24 25 25 25 26 27 27 27 27 27 27 27 26 26 27 27 27 27 27 28 29 31 32 31 31 30 30 29 28 27 26 26 25 24 22 21 20 19
26 26 26 26 26 26 26 26 26 27 27 28 28 28 28 27 28 28 27 27 28 28 29 29 28 29 32 34 33 33 32 32 32 30 29 28 29 27 26 25 24 22 21
26 26 26 26 27 27 27 28 28 28 29 29 30 30 30 29 30 30 29 28 29 30 30 30 30 30 31 33 34 34 33 33 33 32 32 31 30 30 29 27 26 25 24
25 25 26 27 28 28 28 29 29 30 30 30 31 31 31 31 32 31 31 31 31 32 32 31 32 32 32 32 34 34 33 33 32 34 34 33 32 32 32 30 29 28 26
24 25 26 27 28 29 29 29 30 30 31 31 32 32 33 33 33 33 33 32 33 33 33 33 33 33 34 33 33 34 33 34 34 34 35 35 34 34 33 32 31 31 29
25 26 26 27 28 29 29 30 31 31 32 32 32 33 33 34 34 35 34 33 34 34 35 35 35 34 35 35 34 34 34 35 34 35 35 36 36 35 35 34 33 32 32
26 26 27 28 29 30 30 31 32 32 33 33 34 34 35 35 35 35 35 35 35 35 36 36 36 35 36 35 35 35 35 35 36 36 37 37 36 36 36 36 35 33 33
27 27 28 28 29 31 31 32 32 33 34 34 35 35 35 35 35 36 36 35 36 36 36 36 37 37 37 37 36 36 36 36 37 37 37 37 36 36 37 37 36 35 35
28 29 29 30 31 31 32 33 33 33 34 34 34 34 35 35 36 36 37 37 38 39 39 38 38 38 38 38 38 37 37 36 37 37 37 37 37 36 37 37 37 35 35
29 29 30 31 31 31 32 32 33 33 34 34 35 35 35 36 36 37 37 38 39 39 40 40 39 40 40 40 39 39 39 38 38 39 38 38 38 37 36 38 38 37 36
29 30 30 30 31 32 32 32 33 33 33 34 35 36 36 37 37 38 38 39 40 40 40 41 41 41 42 41 40 40 40 40 39 39 39 39 39 39 37 38 38 38 38
30 30 31 31 31 32 32 32 33 33 33 34 35 36 36 37 38 39 39 40 40 41 41 42 43 43 42 42 41 42 42 41 41 40 40 39 39 40 40 39 39 39 38
31 31 31 32 32 32 32 32 32 33 33 34 35 36 37 38 39 40 40 41 41 41 42 42 43 44 44 43 42 43 43 41 42 42 41 40 40 40 41 41 40 40 39
32 32 32 32 32 32 32 32 32 33 33 34 35 36 37 38 39 40 41 41 42 42 41 42 43 44 44 44 43 43 43 43 42 42 42 42 41 40 41 42 42 41 40
33 33 33 33 33 33 33 33 32 32 33 33 34 35 36 38 39 40 41 41 42 42 43 43 43 44 45 44 45 44 44 44 44 43 43 43 42 42 43 43 43 42 41
34 34 34 34 34 33 33 32 33 33 32 32 33 34 35 37 38 39 40 41 42 43 43 44 44 44 44 44 45 45 44 44 45 45 44 45 44 44 44 44 43 43 42
35 35 35 35 35 34 33 33 33 32 32 32 32 32 33 34 35 37 39 40 42 42 42 43 44 45 45 45 45 45 45 44 45 46 45 45 45 44 45 46 45 44 42
37 36 36 35 35 35 34 33 33 32 32 32 32 32 32 33 34 35 36 38 40 41 42 42 43 44 44 45 45 45 46 45 45 45 46 45 44 45 46 46 45 45 44
37 37 36 36 35 35 34 34 33 32 31 31 31 31 31 32 33 34 35 36 38 39 41 42 43 44 45 45 45 45 45 45 44 45 45 45 45 45 46 47 46 46 45
38 37 37 37 36 35 35 34 33 31 30 30 30 30 30 31 32 33 34 35 36 38 40 41 42 43 46 46 47 46 45 45 44 43 45 45 46 46 45 46 47 47 46
38 38 38 38 37 36 35 33 32 31 31 30 29 29 28 29 30 31 32 33 34 36 39 40 41 42 44 46 46 46 44 43 43 43 44 44 44 45 46 47 47 47 48

GEFSMA_500_meanwind_114.txt.gz
Wind_Speed
18 17 16 17 18 19 19 20 20 20 21 23 24 25 23 21 20 20 20 21 21 21 20 19 19 19 19 19 18 18 17 16 15 15 14 13 12 11 11 10 10 9 9
16 16 16 15 16 17 18 19 19 19 21 22 24 25 25 24 22 21 21 21 21 21 21 21 21 21 21 21 21 20 19 18 17 17 16 15 14 13 13 12 11 11 10
17 17 17 16 15 16 16 16 18 19 20 21 22 24 25 25 24 23 22 22 22 22 22 23 23 23 23 23 23 22 22 20 19 19 18 17 16 15 15 14 13 12 12
18 17 17 17 17 17 16 16 18 19 20 21 22 22 23 24 24 23 23 23 23 24 24 24 25 25 25 25 25 24 24 23 22 21 20 19 18 17 17 16 16 15 14
17 17 17 18 18 18 18 18 18 19 19 20 22 23 23 24 24 25 25 25 25 25 25 25 26 27 26 27 27 26 26 26 25 23 23 22 21 20 19 18 18 17 16
18 18 18 19 19 19 19 20 20 20 20 21 22 23 24 25 25 26 27 27 27 27 26 27 27 28 28 28 29 28 28 28 28 27 25 24 24 22 22 21 20 19 18
19 19 19 19 20 20 20 21 21 21 21 22 22 23 24 25 26 27 27 27 28 28 28 28 28 29 29 29 30 30 30 29 29 29 29 27 26 25 25 24 23 22 20
17 18 18 19 20 20 21 21 22 22 23 24 24 25 25 26 27 27 28 28 29 29 29 30 30 31 31 31 32 32 32 32 32 32 32 31 29 28 27 26 25 25 23
16 17 18 19 20 20 21 21 22 23 24 25 25 26 26 27 27 28 29 29 29 30 30 30 31 31 32 32 32 33 34 34 33 34 34 33 32 30 30 29 28 27 26
17 17 18 18 19 20 21 21 22 23 25 25 26 26 27 28 28 29 30 31 31 32 32 32 32 32 33 35 34 34 35 35 36 36 36 36 34 33 32 32 31 29 28
16 17 18 19 20 20 21 22 23 24 25 27 27 28 28 29 30 30 32 32 33 34 34 34 33 34 34 34 35 35 36 36 37 37 37 38 37 36 35 35 34 32 31
17 18 19 20 21 22 22 23 24 25 25 27 28 28 29 29 30 30 32 33 34 35 36 36 35 35 36 36 37 37 37 37 37 38 37 38 38 38 37 38 37 35 34
18 19 20 21 22 23 24 24 25 25 26 26 27 28 29 30 31 31 32 33 35 36 37 38 38 38 38 38 39 39 39 38 38 39 39 39 39 39 38 38 38 38 37
20 20 21 22 23 24 24 25 26 27 27 28 28 29 30 31 32 32 33 34 35 36 38 38 39 40 40 40 40 40 40 39 39 40 40 41 40 40 39 40 40 39 39
21 22 23 24 25 25 26 26 27 27 28 29 29 29 30 31 32 33 34 35 36 36 38 39 40 41 42 41 42 41 41 41 40 40 40 41 41 41 40 40 41 40 40
23 24 26 26 26 27 27 28 28 28 28 29 30 30 31 32 33 34 34 35 36 38 38 39 40 42 42 42 43 43 41 41 42 41 41 42 42 42 41 41 41 41 40
25 26 27 28 28 28 28 29 29 29 29 30 30 31 31 32 33 34 35 36 37 38 39 40 41 42 43 43 43 43 43 43 44 43 43 43 43 42 42 42 43 42 42
28 29 29 29 29 29 29 30 30 30 30 30 30 31 32 32 32 34 35 37 38 39 40 40 42 43 43 44 44 44 44 44 45 45 45 45 44 43 43 42 42 42 43
30 30 31 30 30 30 31 31 31 31 31 30 30 31 31 32 33 34 35 36 38 39 40 41 42 43 44 45 45 45 45 45 44 46 46 46 45 44 43 43 42 41 42
31 32 32 32 32 32 32 32 32 31 31 31 31 31 31 32 33 34 35 36 37 38 40 41 42 43 44 45 46 46 46 46 45 46 46 46 47 46 45 44 43 43 42
32 33 33 33 33 33 33 33 33 32 31 31 31 31 31 32 32 33 34 35 36 37 39 40 41 43 44 45 45 46 47 47 47 47 47 47 47 48 47 46 45 44 43
33 33 33 33 34 34 34 33 33 32 32 31 31 31 31 31 32 33 33 35 36 37 38 40 41 42 44 45 46 46 47 47 48 48 49 48 48 48 48 47 46 45 45
33 34 34 34 34 35 35 34 33 32 32 31 31 31 31 32 32 33 33 33 35 36 37 39 40 41 43 45 46 47 47 48 48 49 49 48 49 49 49 48 48 48 47
34 35 35 35 35 36 35 35 34 33 32 31 31 31 31 31 32 32 32 32 33 34 36 37 38 40 42 44 45 46 47 48 48 49 50 49 49 49 49 49 48 48 48
35 36 35 35 36 36 36 35 34 32 32 31 31 31 31 31 31 31 31 31 32 33 34 35 36 38 40 42 44 45 46 47 48 49 49 49 49 49 50 49 49 49 49
36 36 36 36 36 36 36 35 34 32 32 31 32 32 32 31 30 29 29 29 29 30 32 33 35 36 39 41 43 44 45 46 46 47 49 49 49 49 50 51 50 50 49

GEFSMA_500_meanwind_120.txt.gz
Wind_Speed
16 16 16 16 17 16 16 18 18 17 17 17 16 15 16 18 19 19 18 18 18 18 19 19 20 19 19 18 19 18 18 18 17 16 15 14 13 12 11 11 11 10 9
15 15 15 16 16 16 16 17 17 17 18 18 17 17 16 18 20 20 21 20 19 20 20 20 21 21 20 20 20 20 20 20 19 18 17 16 15 14 13 13 12 11 10
15 16 16 16 16 16 17 18 18 18 18 18 18 18 18 18 19 21 21 22 21 20 21 21 22 22 22 22 23 22 22 21 21 20 19 18 17 16 15 15 14 13 12
16 16 16 16 16 17 18 18 19 19 19 19 18 18 19 19 20 21 22 23 22 22 23 23 23 24 24 25 25 24 24 24 23 23 22 21 20 18 17 16 16 15 14
16 16 17 17 17 17 18 19 19 19 19 19 19 19 20 21 22 22 22 23 24 24 24 25 24 25 26 27 27 27 26 26 26 25 24 23 22 21 20 19 18 17 16
15 16 16 17 17 17 18 19 19 20 20 20 20 20 21 21 22 23 24 25 25 25 25 26 26 26 27 28 29 29 29 28 28 27 27 26 25 24 23 22 20 19 18
14 15 15 16 17 17 18 19 19 20 21 22 22 22 22 22 23 24 24 25 25 26 25 26 27 28 28 29 29 30 31 31 30 29 29 29 28 27 25 24 23 21 20
14 14 15 16 16 17 17 18 19 19 20 21 22 22 23 24 24 24 25 26 27 27 27 28 28 29 30 31 31 31 31 33 32 32 31 31 30 29 28 27 26 24 23
13 13 14 14 15 15 16 17 18 19 20 20 21 22 23 24 26 26 26 26 27 28 29 29 30 31 32 33 34 33 33 34 34 35 35 34 32 32 31 29 28 27 26
12 13 13 14 14 15 16 17 18 19 20 21 22 23 24 25 26 27 27 28 28 29 30 30 31 32 33 33 34 35 35 35 36 37 37 37 35 34 33 32 31 29 28
12 12 13 14 15 16 16 17 18 19 20 21 22 23 24 25 27 28 28 29 29 30 32 32 33 33 33 35 35 35 36 37 37 38 38 38 38 37 36 35 34 33 31
12 13 14 14 15 16 17 18 19 20 21 22 23 24 25 26 27 28 29 30 31 31 32 34 35 35 35 36 37 37 38 39 39 40 40 40 40 40 39 38 37 36 35
13 14 15 16 17 18 19 20 21 21 22 23 24 25 26 26 27 28 29 31 32 33 33 35 36 37 37 38 38 39 39 39 40 41 42 42 41 42 41 41 40 38 38
14 16 17 18 19 20 21 21 22 23 24 24 25 26 27 27 28 29 30 31 32 34 35 36 37 37 39 40 40 40 40 40 40 41 43 44 44 43 43 42 42 41 40
16 17 18 20 21 22 22 23 24 24 25 25 26 27 27 28 28 29 30 31 32 34 36 37 38 39 40 41 41 42 41 41 42 41 43 44 45 45 44 44 43 43 42
17 19 20 21 22 23 23 24 24 25 25 26 26 27 28 28 29 30 30 31 32 33 35 37 39 40 41 42 43 43 44 43 44 43 43 44 46 46 45 45 45 44 44
19 20 21 22 23 24 24 25 26 26 26 27 27 28 28 29 30 30 30 31 32 33 34 36 39 41 42 42 44 44 45 46 46 46 46 46 46 47 47 47 47 46 45
20 22 23 24 25 25 26 27 28 27 28 28 28 28 29 29 30 30 31 31 32 33 34 35 38 40 41 43 43 44 45 46 46 47 48 48 48 48 47 48 48 47 46
22 23 24 25 26 27 27 28 29 29 29 29 29 29 29 29 30 31 31 32 32 32 33 34 36 38 40 42 43 44 45 46 47 48 48 49 49 49 48 48 49 48 47
23 25 26 27 27 28 29 30 30 30 30 30 31 30 30 30 31 31 31 31 32 33 33 34 36 38 40 41 43 44 46 47 47 49 49 50 50 50 50 50 50 49 49
24 26 27 28 29 29 30 31 31 31 31 32 31 31 31 31 31 31 31 32 32 33 34 34 35 37 39 41 42 44 45 46 48 49 50 50 51 51 51 51 51 50 50
25 27 28 29 30 30 31 32 32 32 32 32 32 32 32 31 31 31 31 31 32 33 33 34 35 36 38 40 42 43 44 45 47 49 50 50 51 52 52 52 51 51 51
27 28 29 30 31 32 32 33 33 33 33 33 33 33 33 32 32 32 32 32 32 33 33 34 34 36 37 39 41 42 43 45 46 48 50 50 51 52 52 52 52 52 52
28 29 30 31 32 33 33 34 34 34 34 34 34 34 34 34 33 33 32 32 33 33 33 33 33 35 37 38 39 41 42 44 45 47 49 50 51 52 53 53 53 53 52
30 31 31 32 33 34 34 35 35 35 35 35 35 35 35 34 34 34 33 32 32 33 33 33 33 33 35 37 38 39 41 43 44 46 48 49 50 51 52 52 53 53 53
30 31 32 33 34 35 36 36 36 36 36 37 37 36 35 34 34 34 34 33 33 33 33 32 32 32 33 35 37 38 40 41 43 45 47 49 50 51 51 51 52 53 53

GEFSMA_500_meanwind_126.txt.gz
Wind_Speed
13 13 13 13 12 12 12 12 11 11 12 13 14 15 15 15 16 16 16 18 19 20 19 19 19 19 19 19 19 18 18 17 17 17 16 15 14 13 12 11 10 10 9
13 13 14 13 13 13 13 13 12 12 12 13 14 15 15 16 17 18 18 19 20 20 20 20 20 20 20 21 21 21 20 20 19 19 18 17 17 15 14 13 12 12 11
12 12 12 12 12 13 13 14 14 14 13 14 14 15 16 16 17 17 18 19 21 21 21 21 22 22 22 22 23 23 23 22 22 21 21 20 19 18 17 16 14 13 13
11 12 12 12 13 13 13 14 13 13 13 14 15 15 15 16 17 18 19 20 21 22 23 23 24 24 23 24 24 25 25 24 24 24 23 23 21 20 19 18 17 16 15
11 11 11 12 12 13 13 14 14 14 13 14 14 15 15 17 17 18 19 21 21 23 24 24 25 25 25 25 26 26 27 27 27 26 26 25 24 23 22 20 19 18 17
10 10 10 10 11 11 12 13 13 14 14 14 14 15 16 17 17 18 19 20 22 23 24 25 25 26 26 26 26 27 28 29 29 30 29 28 27 26 25 23 22 21 20
8 8 9 9 10 11 11 12 12 13 14 14 15 15 16 17 18 19 20 20 22 23 24 25 26 26 27 27 27 28 29 30 30 32 31 30 29 29 28 27 25 24 23
7 8 8 9 10 10 11 11 12 12 13 14 15 16 17 18 18 19 21 21 22 22 24 26 27 27 28 29 28 29 30 32 32 33 33 33 31 31 31 30 29 27 26
5 6 8 9 9 10 10 11 12 12 13 14 15 16 17 17 18 20 21 22 23 24 24 26 27 27 28 29 30 31 31 33 34 34 35 34 33 33 33 33 32 30 29
5 6 7 8 8 9 10 11 12 13 14 15 16 16 17 18 19 20 22 23 24 25 26 27 28 29 30 30 31 32 33 33 34 35 36 35 35 35 35 35 34 33 32
5 6 7 7 8 9 10 11 12 13 14 15 16 17 18 19 20 21 22 24 24 25 26 27 28 30 31 32 33 34 34 34 35 37 38 38 37 37 37 37 36 36 35
5 6 7 8 9 10 11 12 13 14 14 16 17 18 19 20 20 22 23 24 25 26 27 28 30 31 32 33 34 35 35 36 36 37 38 39 39 39 39 39 39 38 37
5 6 8 9 10 11 12 13 14 15 15 16 17 18 19 20 21 22 24 25 26 27 29 30 31 32 33 34 35 36 36 37 38 38 39 40 40 40 40 41 41 40 40
6 8 9 10 12 13 14 14 15 16 16 16 17 18 19 20 21 22 24 25 26 28 29 30 31 32 34 36 37 37 38 38 38 39 39 40 41 41 41 42 41 41 42
8 9 10 11 12 13 14 15 15 16 17 17 18 19 20 20 21 22 24 25 26 28 29 30 31 33 33 35 37 38 40 41 41 41 41 42 42 42 43 43 44 44 43
9 10 11 12 13 14 15 16 16 17 18 19 19 20 20 21 22 23 24 25 26 27 29 31 32 33 34 35 36 38 39 41 42 43 44 44 44 44 44 45 45 46 46
10 11 12 13 15 16 16 17 18 18 19 20 21 21 21 22 22 23 24 25 26 27 28 30 31 32 34 35 36 37 39 41 43 44 45 46 46 46 46 46 46 47 47
12 13 14 15 16 18 18 19 20 21 21 22 22 22 23 23 24 24 25 25 26 26 27 29 31 32 33 34 35 36 38 40 42 44 46 47 47 48 48 48 48 48 48
13 14 16 17 18 20 20 21 22 22 23 23 24 24 24 24 25 26 26 26 26 27 28 29 31 32 33 35 35 36 38 39 41 43 46 47 48 49 50 50 49 50 49
15 17 18 19 20 21 22 22 23 24 24 24 25 25 26 26 27 27 27 27 28 28 29 29 30 32 33 35 36 37 38 39 41 42 44 46 48 49 50 51 51 50 50
18 19 20 21 22 23 24 24 25 25 26 26 27 27 27 28 28 29 29 29 30 30 30 30 31 32 33 35 36 37 38 39 40 42 43 45 47 49 50 51 51 51 50
20 21 22 23 23 24 25 26 26 27 28 28 28 29 29 30 30 30 31 31 31 31 31 31 32 33 34 35 36 37 37 38 40 42 42 44 47 48 49 51 51 52 51
22 22 24 24 25 25 26 27 28 28 29 30 30 31 31 32 32 32 32 32 32 33 33 33 33 34 34 35 36 37 38 38 39 41 42 43 45 47 48 50 51 51 52
23 24 25 26 26 27 27 28 29 30 31 31 31 32 33 33 34 34 34 34 34 34 34 34 34 34 35 35 36 37 38 39 39 40 42 42 44 45 47 49 50 51 51
25 26 27 27 28 28 29 30 31 31 32 32 33 33 34 34 35 35 35 35 35 35 35 35 35 35 35 35 36 36 37 38 39 39 40 41 42 44 46 47 49 50 51
27 28 28 29 29 30 31 32 32 33 33 34 34 35 35 36 36 36 37 37 36 36 37 37 36 35 35 35 35 35 35 36 37 38 39 40 41 42 44 45 47 49 50

GEFSMA_500_meanwind_132.txt.gz
Wind_Speed
13 13 12 12 12 12 11 10 11 11 11 11 12 13 14 14 14 14 14 15 15 16 17 16 16 16 16 15 16 16 15 14 14 14 13 13 12 11 10 9 8 8 7
13 12 11 11 11 10 10 10 11 11 12 12 12 13 14 15 15 15 15 16 16 17 17 17 17 17 17 17 17 17 17 17 17 16 16 15 15 13 13 12 10 10 9
11 10 10 10 9 9 10 9 10 10 10 11 11 12 12 14 15 15 16 16 17 17 17 18 19 19 19 19 18 18 19 19 19 19 18 18 18 17 15 14 13 12 11
9 9 9 9 8 8 9 9 9 10 11 11 11 11 11 12 14 15 16 16 17 18 18 19 19 20 20 20 20 20 20 21 21 21 20 20 20 20 18 17 16 15 14
8 8 8 7 7 8 8 9 10 11 11 11 11 11 11 11 12 13 15 16 17 18 19 19 20 20 21 21 22 22 22 22 23 23 23 22 21 22 21 20 19 18 16
8 7 7 7 7 7 8 9 10 10 10 10 10 11 11 11 12 13 13 14 15 17 18 19 20 21 21 21 22 23 24 23 24 24 25 25 24 24 24 23 22 20 19
6 6 6 6 6 7 7 8 9 10 10 10 9 10 11 11 12 13 14 15 15 16 17 18 19 21 22 23 23 24 24 25 26 26 26 27 27 26 26 26 25 23 22
5 5 6 6 6 7 8 8 9 9 10 10 10 11 11 12 13 14 14 15 16 17 17 18 19 20 22 23 23 23 24 25 25 26 28 28 28 29 29 29 28 26 25
3 4 5 5 6 7 8 9 9 9 10 11 11 12 12 13 13 14 15 16 16 17 18 20 20 21 22 23 24 24 24 25 26 26 27 28 30 29 30 32 31 30 28
3 4 5 5 6 7 8 9 10 10 11 11 12 12 13 14 14 14 15 16 17 18 19 19 21 22 23 23 24 25 25 25 26 27 27 28 30 30 31 32 33 33 31
3 4 5 6 7 8 9 10 11 11 12 12 12 13 14 15 15 15 16 17 18 18 19 20 21 22 24 25 25 26 26 27 27 27 28 28 30 31 31 33 33 33 33
3 4 5 6 7 9 10 10 11 12 12 13 13 14 14 15 16 17 18 18 19 20 21 21 22 24 24 25 26 27 27 28 29 29 30 30 30 31 32 33 34 34 34
3 4 5 7 8 9 10 11 12 12 13 13 14 14 15 15 16 17 18 19 20 20 21 22 23 24 25 26 27 28 28 29 30 31 31 32 32 32 32 34 35 36 35
3 4 6 7 8 10 11 12 12 13 14 14 15 15 16 17 17 18 19 19 20 21 22 22 23 24 25 26 27 28 29 30 31 32 33 34 34 34 34 34 36 37 38
4 5 6 7 9 10 11 12 13 14 14 15 16 16 17 17 18 19 19 20 20 21 22 23 23 24 25 26 28 29 30 30 31 32 33 34 35 36 36 36 36 37 38
5 6 7 8 10 11 12 13 14 15 15 16 17 18 18 19 19 20 20 21 22 22 23 23 24 24 25 26 27 28 29 30 31 32 34 35 36 37 37 38 39 39 39
6 7 9 10 12 13 14 14 15 16 17 17 18 19 20 20 20 21 22 22 23 23 23 24 25 25 26 26 26 27 28 29 31 32 33 34 36 37 39 39 40 40 40
9 10 11 12 14 15 15 16 17 18 18 19 20 20 21 21 21 22 23 23 24 24 25 25 26 27 27 27 27 28 28 29 30 31 33 34 35 36 38 40 41 42 43
11 13 14 15 16 17 18 18 19 20 20 21 21 22 22 22 23 23 24 24 25 26 26 27 27 28 28 28 28 29 29 30 30 31 32 34 35 36 38 39 41 42 43
14 15 16 17 18 19 20 21 21 22 22 22 23 23 23 24 25 25 26 26 26 27 28 28 28 29 29 29 29 30 30 31 32 33 33 34 35 37 38 39 40 42 43
16 18 19 20 21 21 22 22 23 23 23 24 24 25 25 26 26 27 27 28 28 28 29 29 30 30 30 31 31 31 31 32 32 34 34 35 35 36 38 39 40 41 43
19 20 21 21 22 23 23 24 24 24 25 25 26 26 27 27 28 29 29 29 30 30 30 31 31 32 32 32 32 33 33 33 33 34 35 35 36 36 37 39 40 41 42
21 22 23 23 24 24 25 25 26 26 26 27 27 28 28 29 29 30 30 31 31 32 32 33 33 33 34 34 34 34 34 34 34 34 35 35 37 37 38 40 40 41 42
23 23 24 25 25 25 26 27 27 28 28 28 29 29 30 30 31 31 32 32 32 33 34 34 34 34 35 35 35 35 35 35 34 35 36 36 36 37 38 39 41 42 42
24 25 25 25 26 27 28 28 29 29 29 29 30 31 31 32 33 33 34 34 34 35 35 35 35 35 35 36 36 37 37 36 35 35 37 37 36 37 37 38 39 41 41
26 26 26 27 27 28 29 30 30 30 30 31 31 32 33 34 34 35 35 35 35 36 36 36 36 37 37 37 37 37 37 37 36 35 36 37 36 36 36 36 38 39 40

GEFSMA_500_meanwind_138.txt.gz
Wind_Speed
10 10 11 11 10 10 9 8 9 9 9 9 9 10 10 10 10 10 10 10 10 11 11 12 12 12 12 11 11 11 11 11 10 11 11 10 10 10 10 9 9 8 7
10 9 9 9 9 9 8 8 8 8 8 8 9 10 11 11 11 11 11 11 11 12 12 13 13 13 13 13 13 13 13 13 13 13 12 12 12 12 12 12 11 11 10
9 9 7 6 7 7 8 8 8 8 8 8 8 9 10 10 10 11 12 12 12 12 12 13 14 15 15 15 15 15 15 14 15 16 15 15 14 14 15 14 14 13 12
7 7 6 5 5 6 5 6 6 7 7 7 8 8 9 9 10 10 11 12 12 13 13 13 14 15 17 17 16 17 17 17 17 17 18 17 17 16 16 17 17 16 15
6 5 4 3 3 4 3 3 4 4 5 5 6 7 7 8 8 8 9 10 11 12 13 14 15 15 16 18 19 19 19 18 19 19 20 20 19 19 18 18 19 19 18
5 4 3 2 2 2 2 2 2 3 4 5 6 6 7 7 8 8 8 8 9 10 12 13 14 15 16 18 19 19 20 20 20 20 21 21 21 21 21 20 20 21 21
5 4 2 1 1 1 1 1 2 3 4 4 5 6 6 7 7 8 8 8 9 9 10 12 13 15 15 17 18 19 19 21 21 22 22 23 23 23 23 23 22 22 23
5 4 3 2 1 0 1 1 1 2 3 4 4 5 6 6 6 7 8 8 9 10 10 11 12 14 15 16 17 17 18 20 21 22 22 23 24 24 25 24 24 24 25
5 5 3 2 1 1 1 1 1 2 3 3 4 5 5 6 6 7 7 8 9 10 10 12 12 13 15 16 17 18 18 19 20 22 22 23 25 26 26 26 27 27 27
6 5 3 2 1 1 1 1 2 3 3 4 4 5 5 6 6 7 8 8 8 9 10 11 12 13 14 15 17 18 19 20 20 21 22 23 24 26 27 27 28 28 29
6 5 3 2 1 1 1 2 2 3 4 4 4 5 5 6 6 7 8 9 10 10 11 12 13 13 14 16 17 18 19 21 21 22 23 23 24 25 27 27 29 30 31
6 5 4 2 1 1 1 2 3 4 4 5 5 5 6 6 7 8 9 10 10 11 12 13 13 14 15 16 17 19 20 22 22 23 24 24 25 25 27 28 29 30 32
6 5 4 2 1 0 1 2 3 4 5 6 6 7 7 8 8 9 9 10 11 12 12 13 14 14 15 17 18 19 21 22 23 24 25 25 26 27 28 29 30 31 32
6 5 4 2 1 1 2 3 4 5 6 6 7 8 8 9 9 10 11 11 12 12 13 14 14 15 16 17 18 19 20 22 23 24 26 27 28 28 29 30 31 31 32
6 5 4 2 1 2 2 4 4 5 6 7 8 9 9 10 11 11 12 12 13 13 14 14 15 16 16 17 18 20 21 22 23 24 26 27 28 29 30 31 32 33 33
7 6 4 3 2 3 4 5 6 7 8 9 9 10 11 12 12 13 13 14 14 15 15 16 16 17 18 18 19 20 21 22 23 24 25 27 28 29 31 32 32 33 34
7 6 5 4 4 5 6 7 7 8 9 10 11 12 12 13 14 15 15 16 16 17 17 18 18 19 19 20 20 21 21 22 23 24 25 27 28 29 31 32 33 34 35
7 6 6 6 6 7 8 9 9 10 11 12 12 13 14 15 15 16 17 17 18 19 19 20 20 20 21 22 22 22 22 23 24 25 26 27 28 30 31 32 33 35 36
8 7 7 7 8 9 10 11 12 13 13 14 14 14 15 16 17 17 18 19 19 20 21 21 22 23 23 23 23 24 24 25 25 26 26 27 29 30 31 32 33 34 36
9 9 9 10 10 11 12 13 14 14 15 15 16 16 17 18 18 19 20 21 21 21 22 23 23 24 25 25 25 26 26 27 27 28 28 29 29 30 32 33 33 35 36
11 12 12 12 13 14 15 15 16 16 17 18 18 18 19 20 20 20 21 22 23 23 24 24 25 26 27 27 27 27 28 29 30 30 30 30 31 31 32 33 35 36 36
14 14 15 15 16 16 17 17 18 19 19 19 20 20 21 21 21 22 23 23 24 25 26 26 27 27 28 29 29 29 30 30 31 32 32 32 32 33 34 34 35 36 37
17 17 17 18 18 19 19 20 20 20 21 21 22 22 22 22 23 24 25 26 26 27 28 28 29 29 30 31 31 31 31 32 32 33 33 33 34 34 34 35 37 37 38
19 19 20 20 21 21 21 22 22 22 23 23 23 24 24 24 25 26 27 27 28 29 30 30 31 32 33 33 33 34 34 34 34 35 36 35 35 36 35 36 36 37 39
21 21 22 22 23 23 24 24 25 24 25 25 25 26 26 27 27 28 29 29 30 31 32 33 33 34 35 36 36 36 37 36 36 37 38 37 37 37 37 38 39 39 39
23 23 24 24 24 25 26 26 26 26 26 26 27 28 28 29 29 30 31 32 33 33 34 35 36 37 38 38 39 39 39 39 39 39 40 40 39 39 38 39 40 40 40